Location: ??
(34.7707°N, 135.6540°E)
Time: 16:38:23
(UTC+00:00)

NOSS 3-3 (A) - Pass Details

Date: 09 April 2020
Orbit: 834 x 1378 km, 63.4° (Epoch: 05 May)

Event Time Altitude Azimuth Distance (km) Brightness Sun altitude
Rises 18:09:27 0° 327° (NNW) 4,081 7.3 -28.0°
Reaches altitude 10° 18:12:04 10° 327° (NNW) 3,183 6.7 -27.5°
Maximum altitude 18:19:55 82° 241° (WSW) 1,332 4.5 -26.2°
Drops below altitude 10° 18:28:24 10° 155° (SSE) 3,427 6.8 -24.7°
Sets 18:31:19 0° 155° (SSE) 4,407 7.4 -24.1°
